This is the latest recevied weather packets stored in our database for station/object OK1HOL-13. If no packets are shown the sender has not sent any weather packets the latest 10 day(s).
| Time | Temp. | Humidity | Pressure | Rain* | Wind** | Luminosity | Snow |
|---|---|---|---|---|---|---|---|
| 1777739752 | 25° C | 19% | 1018.2 hPa | - | - | 19 W/m² | - |
| 1777739152 | 25° C | 20% | 1018.3 hPa | - | - | 21 W/m² | - |
| 1777738552 | 26.11° C | 17% | 1018.5 hPa | - | - | 83 W/m² | - |
| 1777737952 | 26.11° C | 17% | 1018.5 hPa | - | - | 103 W/m² | - |
| 1777737352 | 25.56° C | 17% | 1018.7 hPa | - | - | 124 W/m² | - |
| 1777736752 | 26.67° C | 17% | 1018.8 hPa | - | - | 133 W/m² | - |
| 1777736152 | 27.78° C | 15% | 1018.9 hPa | - | - | 173 W/m² | - |
| 1777734952 | 27.78° C | 15% | 1019.1 hPa | - | - | 192 W/m² | - |
| 1777734352 | 26.11° C | 16% | 1019.4 hPa | - | - | 225 W/m² | - |
| 1777733752 | 27.78° C | 15% | 1019.4 hPa | - | - | 243 W/m² | - |
| 1777733152 | 27.22° C | 16% | 1019.5 hPa | - | - | 272 W/m² | - |
| 1777732552 | 27.22° C | 16% | 1019.7 hPa | - | - | 293 W/m² | - |
| 1777731952 | 27.22° C | 17% | 1019.9 hPa | - | - | 307 W/m² | - |
| 1777731352 | 28.33° C | 16% | 1020 hPa | - | - | 317 W/m² | - |
| 1777730752 | 27.78° C | 16% | 1020.1 hPa | - | - | 354 W/m² | - |
| 1777730152 | 27.78° C | 16% | 1020.2 hPa | - | - | 384 W/m² | - |
| 1777729552 | 26.67° C | 17% | 1020.5 hPa | - | - | 427 W/m² | - |
| 1777728952 | 27.22° C | 16% | 1020.5 hPa | - | - | 431 W/m² | - |
| 1777728352 | 27.22° C | 17% | 1020.6 hPa | - | - | 431 W/m² | - |
| 1777727756 | 27.78° C | 17% | 1020.7 hPa | - | - | 0 W/m² | - |
| 1777727151 | 27.78° C | 16% | 1021 hPa | - | - | 431 W/m² | - |
| 1777726551 | 27.78° C | 17% | 1021.1 hPa | - | - | 431 W/m² | - |
| 1777725951 | 25.56° C | 18% | 1021.3 hPa | - | - | 431 W/m² | - |
| 1777725351 | 26.67° C | 17% | 1021.4 hPa | - | - | 431 W/m² | - |
| 1777724751 | 26.11° C | 17% | 1021.4 hPa | - | - | 431 W/m² | - |
* Rain since midnight (hover to see other rain measurements)
** Current wind speed in m/s (hover to see current wind gust speed)